H1 CPF 2 NER 2023 3 2 9 061 01 glonass146 H2 2216101 9146 54377 2023 3 2 0 0 0 2023 3 5 23 45 0 900 1 1 0 0 0 1 H9 10 0 60005 0.00000 0 12587003.550 14866792.638 -16483358.514 10 0 60005 900.00000 0 13299504.346 16616448.247 -14080484.111 10 0 60005 1800.00000 0 14018185.364 18020775.413 -11404466.716 10 0 60005 2700.00000 0 14685622.049 19061543.012 -8507244.966 10 0 60005 3600.00000 0 15243625.752 19733612.901 -5445031.097 10 0 60005 4500.00000 0 15635843.450 20044943.711 -2277223.245 10 0 60005 5400.00000 0 15810294.908 20016059.942 934743.248 10 0 60005 6300.00000 0 15721740.414 19679009.648 4128583.432 10 0 60005 7200.00000 0 15333779.222 19075855.252 7242366.402 10 0 60005 8100.00000 0 14620590.079 18256761.484 10215711.821 10 0 60005 9000.00000 0 13568240.110 17277761.108 12990956.364 10 0 60005 9900.00000 0 12175506.312 16198292.488 15514267.695 10 0 60005 10800.00000 0 10454174.221 15078612.422 17736684.706 10 0 60005 11700.00000 0 8428799.951 13977192.725 19615064.260 10 0 60005 12600.00000 0 6135944.184 12948209.653 21112916.420 10 0 60005 13500.00000 0 3622908.469 12039231.248 22201112.395 10 0 60005 14400.00000 0 946024.810 11289199.405 22858451.715 10 0 60005 15300.00000 0 -1831431.905 10726791.185 23072077.785 10 0 60005 16200.00000 0 -4641623.472 10369228.122 22837733.663 10 0 60005 17100.00000 0 -7414722.527 10221583.660 22159852.780 10 0 60005 18000.00000 0 -10081575.570 10276618.145 21051482.273 10 0 60005 18900.00000 0 -12576345.166 10515148.800 19534039.648 10 0 60005 19800.00000 0 -14839022.187 10906939.694 17636906.543 10 0 60005 20700.00000 0 -16817703.838 11412074.802 15396866.540 10 0 60005 21600.00000 0 -18470542.723 11982756.773 12857397.016 10 0 60005 22500.00000 0 -19767285.542 12565455.772 10067828.032 10 0 60005 23400.00000 0 -20690336.964 13103317.632 7082384.193 10 0 60005 24300.00000 0 -21235304.048 13538729.156 3959127.942 10 0 60005 25200.00000 0 -21410998.450 13815931.390 758825.103 10 0 60005 26100.00000 0 -21238896.590 13883569.258 -2456244.666 10 0 60005 27000.00000 0 -20752081.072 13697068.444 -5623508.471 10 0 60005 27900.00000 0 -19993708.753 13220737.594 -8681327.058 10 0 60005 28800.00000 0 -19015071.075 12429505.568 -11570202.929 10 0 60005 29700.00000 0 -17873329.633 11310219.084 -14233945.185 10 0 60005 30600.00000 0 -16629023.639 9862444.873 -16620767.618 10 0 60005 31500.00000 0 -15343455.427 8098741.645 -18684298.116 10 0 60005 32400.00000 0 -14076064.990 6044389.738 -20384479.588 10 0 60005 33300.00000 0 -12881904.591 3736589.269 -21688345.051 10 0 60005 34200.00000 0 -11809319.798 1223159.988 -22570652.263 10 0 60005 35100.00000 0 -10897934.152 -1439203.119 -23014366.289 10 0 60005 36000.00000 0 -10177021.450 -4187046.057 -23010981.454 10 0 60005 36900.00000 0 -9664333.044 -6952556.067 -22560677.305 10 0 60005 37800.00000 0 -9365428.193 -9666146.538 -21672306.366 10 0 60005 38700.00000 0 -9273534.336 -12259119.792 -20363214.602 10 0 60005 39600.00000 0 -9369941.908 -14666297.859 -18658898.520 10 0 60005 40500.00000 0 -9624915.966 -16828512.877 -16592505.893 10 0 60005 41400.00000 0 -9999085.405 -18694854.664 -14204189.813 10 0 60005 42300.00000 0 -10445250.581 -20224583.093 -11540328.581 10 0 60005 43200.00000 0 -10910532.779 -21388626.815 -8652626.355 10 0 60005 44100.00000 0 -11338774.670 -22170607.067 -5597111.789 10 0 60005 45000.00000 0 -11673090.462 -22567344.938 -2433053.833 10 0 60005 45900.00000 0 -11858458.117 -22588831.963 778184.483 10 0 60005 46800.00000 0 -11844244.286 -22257666.215 3974332.276 10 0 60005 47700.00000 0 -11586555.372 -21607978.272 7093414.177 10 0 60005 48600.00000 0 -11050315.375 -20683892.667 10074947.704 10 0 60005 49500.00000 0 -10210982.590 -19537589.721 12861111.638 10 0 60005 50400.00000 0 -9055832.269 -18227049.221 15397863.002 10 0 60005 51300.00000 0 -7584750.455 -16813570.545 17635981.290 10 0 60005 52200.00000 0 -5810504.494 -15359173.029 19532020.135 10 0 60005 53100.00000 0 -3758477.486 -13923985.202 21049148.313 10 0 60005 54000.00000 0 -1465876.176 -12563731.887 22157864.183 10 0 60005 54900.00000 0 1019556.482 -11327423.975 22836569.988 10 0 60005 55800.00000 0 3641272.173 -10255347.252 23071995.017 10 0 60005 56700.00000 0 6336021.272 -9377434.208 22859459.339 10 0 60005 57600.00000 0 9036244.236 -8712086.837 22202972.692 10 0 60005 58500.00000 0 11672652.310 -8265499.789 21115166.030 10 0 60005 59400.00000 0 14176891.425 -8031512.351 19617056.293 10 0 60005 60300.00000 0 16484179.263 -7991995.710 17737648.030 10 0 60005 61200.00000 0 18535806.163 -8117759.450 15513378.646 10 0 60005 62100.00000 0 20281395.738 -8369939.352 12987417.124 10 0 60005 63000.00000 0 21680830.765 -8701808.039 10208829.082 10 0 60005 63900.00000 0 22705763.507 -9060931.921 7231623.944 10 0 60005 64800.00000 0 23340646.934 -9391582.863 4113702.609 10 0 60005 65700.00000 0 23583243.347 -9637301.856 915726.272 10 0 60005 66600.00000 0 23444588.981 -9743505.200 -2300070.955 10 0 60005 67500.00000 0 22948416.273 -9660021.608 -5471101.694 10 0 60005 68400.00000 0 22130058.597 -9343451.472 -8535652.461 10 0 60005 69300.00000 0 21034884.316 -8759247.001 -11434093.286 10 0 60005 70200.00000 0 19716327.089 -7883423.906 -14110045.281 10 0 60005 71100.00000 0 18233596.404 -6703831.072 -16511482.579 10 0 60005 72000.00000 0 16649165.762 -5220923.620 -18591746.619 10 0 60005 72900.00000 0 15026145.047 -3448005.941 -20310452.872 10 0 60005 73800.00000 0 13425648.122 -1410933.805 -21634272.509 10 0 60005 74700.00000 0 11904266.466 852712.447 -22537574.217 10 0 60005 75600.00000 0 10511754.658 3294949.430 -23002914.434 10 0 60005 76500.00000 0 9289024.190 5859152.142 -23021367.283 10 0 60005 77400.00000 0 8266528.710 8482182.175 -22592688.671 10 0 60005 78300.00000 0 7463107.095 11096794.504 -21725312.205 10 0 60005 79200.00000 0 6885331.361 13634223.268 -20436177.661 10 0 60005 80100.00000 0 6527385.209 16026839.619 -18750395.843 10 0 60005 81000.00000 0 6371476.806 18210771.866 -16700756.625 10 0 60005 81900.00000 0 6388767.102 20128379.828 -14327089.795 10 0 60005 82800.00000 0 6540773.500 21730481.277 -11675491.073 10 0 60005 83700.00000 0 6781188.950 22978238.726 -8797428.121 10 0 60005 84600.00000 0 7058039.154 23844628.852 -5748743.672 10 0 60005 85500.00000 0 7316086.560 24315434.131 -2588574.876 10 0 60006 0.00000 0 7499379.446 24389716.130 621790.100 10 0 60006 900.00000 0 7553838.468 24079751.382 3820097.992 10 0 60006 1800.00000 0 7429771.127 23410433.141 6944331.718 10 0 60006 2700.00000 0 7084208.268 22418164.675 9933909.660 10 0 60006 3600.00000 0 6482963.453 21149290.522 12730855.632 10 0 60006 4500.00000 0 5602328.080 19658131.663 15280918.785 10 0 60006 5400.00000 0 4430330.169 18004706.773 17534621.808 10 0 60006 6300.00000 0 2967502.880 16252234.684 19448217.490 10 0 60006 7200.00000 0 1227129.248 14464522.190 20984535.461 10 0 60006 8100.00000 0 -765048.651 12703345.929 22113703.104 10 0 60006 9000.00000 0 -2971645.689 11025937.242 22813726.938 10 0 60006 9900.00000 0 -5344942.629 9482674.585 23070923.340 10 0 60006 10800.00000 0 -7828635.304 8115079.416 22880190.186 10 0 60006 11700.00000 0 -10359953.005 6954198.921 22245113.842 10 0 60006 12600.00000 0 -12872059.457 6019442.921 21177908.887 10 0 60006 13500.00000 0 -15296637.778 5317923.482 19699190.967 10 0 60006 14400.00000 0 -17566552.771 4844324.793 17837586.272 10 0 60006 15300.00000 0 -19618480.186 4581308.779 15629184.247 10 0 60006 16200.00000 0 -21395393.482 4500439.344 13116843.243 10 0 60006 17100.00000 0 -22848804.148 4563586.217 10349361.830 10 0 60006 18000.00000 0 -23940661.450 4724748.941 7380531.383 10 0 60006 18900.00000 0 -24644831.571 4932223.478 4268088.196 10 0 60006 19800.00000 0 -24948093.552 5131019.106 1072585.708 10 0 60006 20700.00000 0 -24850609.805 5265422.315 -2143790.676 10 0 60006 21600.00000 0 -24365851.218 5281597.927 -5318442.226 10 0 60006 22500.00000 0 -23519980.087 5130115.924 -8389584.289 10 0 60006 23400.00000 0 -22350717.218 4768295.516 -11297457.396 10 0 60006 24300.00000 0 -20905741.525 4162265.863 -13985497.488 10 0 60006 25200.00000 0 -19240690.275 3288655.004 -16401441.633 10 0 60006 26100.00000 0 -17416844.994 2135834.534 -18498347.127 10 0 60006 27000.00000 0 -15498601.072 704666.632 -20235503.939 10 0 60006 27900.00000 0 -13550827.919 -991278.751 -21579222.872 10 0 60006 28800.00000 0 -11636230.711 -2926046.241 -22503484.545 10 0 60006 29700.00000 0 -9812824.213 -5062143.839 -22990437.262 10 0 60006 30600.00000 0 -8131623.887 -7351883.048 -23030734.940 10 0 60006 31500.00000 0 -6634650.052 -9739154.675 -22623709.377 10 0 60006 32400.00000 0 -5353327.278 -12161566.616 -21777374.362 10 0 60006 33300.00000 0 -4307344.440 -14552854.989 -20508262.211 10 0 60006 34200.00000 0 -3504021.435 -16845468.688 -18841096.429 10 0 60006 35100.00000 0 -2938207.330 -18973220.366 -16808307.143 10 0 60006 36000.00000 0 -2592712.512 -20873894.154 -14449398.793 10 0 60006 36900.00000 0 -2439255.190 -22491702.158 -11810182.345 10 0 60006 37800.00000 0 -2439881.170 -23779488.130 -8941886.718 10 0 60006 38700.00000 0 -2548796.098 -24700587.113 -5900166.458 10 0 60006 39600.00000 0 -2714532.281 -25230264.074 -2744024.656 10 0 60006 40500.00000 0 -2882358.125 -25356672.096 465328.187 10 0 60006 41400.00000 0 -2996828.237 -25081290.562 3665657.477 10 0 60006 42300.00000 0 -3004366.301 -24418825.428 6794907.184 10 0 60006 43200.00000 0 -2855771.522 -23396576.062 9792398.738 10 0 60006 44100.00000 0 -2508542.668 -22053295.270 12600003.141 10 0 60006 45000.00000 0 -1928921.325 -20437590.194 15163263.789 10 0 60006 45900.00000 0 -1093567.804 -18605930.796 17432448.585 10 0 60006 46800.00000 0 9201.653 -16620348.810 19363511.340 10 0 60006 47700.00000 0 1378669.355 -14545922.858 20918944.207 10 0 60006 48600.00000 0 3001494.951 -12448154.092 22068505.002 10 0 60006 49500.00000 0 4852029.392 -10390341.239 22789805.639 10 0 60006 50400.00000 0 6893152.671 -8431063.852 23068750.385 10 0 60006 51300.00000 0 9077602.225 -6621878.079 22899815.403 10 0 60006 52200.00000 0 11349738.418 -5005320.461 22286163.864 10 0 60006 53100.00000 0 13647675.191 -3613302.586 21239593.852 10 0 60006 54000.00000 0 15905688.528 -2465963.277 19780319.311 10 0 60006 54900.00000 0 18056803.453 -1571025.997 17936587.388 10 0 60006 55800.00000 0 20035452.351 -923688.177 15744138.599 10 0 60006 56700.00000 0 21780093.947 -507046.886 13245519.415 10 0 60006 57600.00000 0 23235683.384 -293042.668 10489259.783 10 0 60006 58500.00000 0 24355889.585 -243881.442 7528931.129 10 0 60006 59400.00000 0 25104966.355 -313873.900 4422102.928 10 0 60006 60300.00000 0 25459197.945 -451613.953 1229218.334 10 0 60006 61200.00000 0 25407857.663 -602403.079 -1987588.717 10 0 60006 62100.00000 0 24953638.629 -710816.741 -5165711.066 10 0 60006 63000.00000 0 24112538.286 -723302.857 -8243295.872 10 0 60006 63900.00000 0 22913201.434 -590700.810 -11160457.083 10 0 60006 64800.00000 0 21395749.756 -270572.955 -13860448.243 10 0 60006 65700.00000 0 19610147.501 270751.360 -16290771.915 10 0 60006 66600.00000 0 17614172.690 1056506.797 -18404203.559 10 0 60006 67500.00000 0 15471079.700 2098269.456 -20159709.679 10 0 60006 68400.00000 0 13247051.805 3395233.008 -21523242.485 10 0 60006 69300.00000 0 11008550.764 4934014.527 -22468396.031 10 0 60006 70200.00000 0 8819674.381 6688998.601 -22976911.710 10 0 60006 71100.00000 0 6739632.123 8623205.598 -23039024.159 10 0 60006 72000.00000 0 4820443.511 10689648.030 -22653641.665 10 0 60006 72900.00000 0 3104954.214 12833118.594 -21828358.442 10 0 60006 73800.00000 0 1625251.187 14992335.591 -20579299.224 10 0 60006 74700.00000 0 401541.342 17102356.561 -18930799.712 10 0 60006 75600.00000 0 -558461.241 19097159.961 -16914929.387 10 0 60006 76500.00000 0 -1259615.831 20912287.743 -14570866.078 10 0 60006 77400.00000 0 -1718901.675 22487439.114 -11944134.370 10 0 60006 78300.00000 0 -1964451.400 23768907.844 -9085722.481 10 0 60006 79200.00000 0 -2034113.155 24711761.853 -6051094.498 10 0 60006 80100.00000 0 -1973603.107 25281674.524 -2899116.931 10 0 60006 81000.00000 0 -1834326.927 25456331.578 309079.839 10 0 60006 81900.00000 0 -1670962.698 25226355.013 3511283.341 10 0 60006 82800.00000 0 -1538907.598 24595705.642 6645401.264 10 0 60006 83700.00000 0 -1491696.392 23581547.483 9650661.038 10 0 60006 84600.00000 0 -1578500.831 22213579.621 12468783.747 10 0 60006 85500.00000 0 -1841815.702 20532863.288 15045109.821 10 0 60007 0.00000 0 -2315429.346 18590193.021 17329654.830 10 0 60007 900.00000 0 -3022764.910 16444078.347 19278076.493 10 0 60007 1800.00000 0 -3975662.221 14158422.254 20852531.522 10 0 60007 2700.00000 0 -5173653.269 11799989.086 22022410.193 10 0 60007 3600.00000 0 -6603762.457 9435769.094 22764931.551 10 0 60007 4500.00000 0 -8240841.701 7130347.614 23065589.159 10 0 60007 5400.00000 0 -10048428.027 4943387.770 22918438.483 10 0 60007 6300.00000 0 -11980089.614 2927330.770 22326220.058 10 0 60007 7200.00000 0 -13981205.708 1125408.974 21300315.522 10 0 60007 8100.00000 0 -15991107.652 -429945.983 19860536.632 10 0 60007 9000.00000 0 -17945492.875 -1718234.017 18034750.442 10 0 60007 9900.00000 0 -19779011.813 -2731509.418 15858346.950 10 0 60007 10800.00000 0 -21427920.094 -3474469.965 13373558.644 10 0 60007 11700.00000 0 -22832684.997 -3964008.920 10628644.319 10 0 60007 12600.00000 0 -23940436.586 -4228249.183 7676952.566 10 0 60007 13500.00000 0 -24707160.026 -4305100.875 4575882.902 10 0 60007 14400.00000 0 -25099536.139 -4240403.993 1385764.886 10 0 60007 15300.00000 0 -25096351.858 -4085735.581 -1831322.406 10 0 60007 16200.00000 0 -24689420.391 -3895975.367 -5012766.799 10 0 60007 17100.00000 0 -23883971.660 -3726734.229 -8096650.647 10 0 60007 18000.00000 0 -22698496.128 -3631755.814 -11022964.614 10 0 60007 18900.00000 0 -21164048.478 -3660402.708 -13734782.988 10 0 60007 19800.00000 0 -19323040.496 -3855334.891 -16179376.755 10 0 60007 20700.00000 0 -17227574.293 -4250479.783 -18309242.145 10 0 60007 21600.00000 0 -14937386.206 -4869380.567 -20083024.378 10 0 60007 22500.00000 0 -12517488.038 -5723993.167 -21466318.753 10 0 60007 23400.00000 0 -10035604.677 -6813983.035 -22432333.842 10 0 60007 24300.00000 0 -7559515.288 -8126551.623 -22962404.611 10 0 60007 25200.00000 0 -5154408.808 -9636800.019 -23046346.280 10 0 60007 26100.00000 0 -2880363.489 -11308614.616 -22682642.922 10 0 60007 27000.00000 0 -790054.549 -13096037.843 -21878467.975 10 0 60007 27900.00000 0 1073215.869 -14945066.785 -20649536.960 10 0 60007 28800.00000 0 2677085.893 -16795804.704 -19019795.800 10 0 60007 29700.00000 0 4001234.727 -18584875.873 -17020951.103 10 0 60007 30600.00000 0 5037973.029 -20248003.178 -14691851.654 10 0 60007 31500.00000 0 5792300.057 -21722641.173 -12077733.101 10 0 60007 32400.00000 0 6281427.012 -22950554.947 -9229340.330 10 0 60007 33300.00000 0 6533788.182 -23880237.369 -6201944.324 10 0 60007 34200.00000 0 6587582.792 -24469063.887 -3054272.382 10 0 60007 35100.00000 0 6488909.979 -24685094.988 152627.796 10 0 60007 36000.00000 0 6289576.280 -24508450.988 3356568.347 10 0 60007 36900.00000 0 6044668.598 -23932201.635 6495423.038 10 0 60007 37800.00000 0 5809995.376 -22962733.166 9508327.543 10 0 60007 38700.00000 0 5639504.151 -21619577.228 12336855.115 10 0 60007 39600.00000 0 5582784.565 -19934708.399 14926145.125 10 0 60007 40500.00000 0 5682762.278 -17951339.167 17225962.889 10 0 60007 41400.00000 0 5973681.223 -15722261.948 19191670.668 10 0 60007 42300.00000 0 6479459.569 -13307806.546 20785091.361 10 0 60007 43200.00000 0 7212489.182 -10773497.229 21975248.584 10 0 60007 44100.00000 0 8172929.954 -8187506.009 22738969.088 10 0 60007 45000.00000 0 9348529.772 -5618007.114 23061335.992 10 0 60007 45900.00000 0 10714979.077 -3130541.690 22935984.019 10 0 60007 46800.00000 0 12236786.736 -785501.447 22365230.755 10 0 60007 47700.00000 0 13868642.114 1364164.860 21360040.828 10 0 60007 48600.00000 0 15557207.893 3274927.283 19939823.020 10 0 60007 49500.00000 0 17243269.914 4914251.087 18132063.308 10 0 60007 50400.00000 0 18864155.035 6261708.320 15971799.990 10 0 60007 51300.00000 0 20356316.324 7309578.442 13500950.188 10 0 60007 52200.00000 0 21657977.399 8062913.246 10767499.956 10 0 60007 53100.00000 0 22711724.649 8539063.735 7824573.232 10 0 60007 54000.00000 0 23466937.830 8766689.428 4729397.531 10 0 60007 54900.00000 0 23881955.916 8784292.560 1542186.562 10 0 60007 55800.00000 0 23925885.980 8638339.947 -1675037.904 10 0 60007 56700.00000 0 23579977.834 8381053.023 -4859661.232 10 0 60007 57600.00000 0 22838505.543 8067960.794 -7949703.558 10 0 60007 58500.00000 0 21709117.881 7755320.656 -10885034.807 10 0 60007 59400.00000 0 20212642.434 7497517.620 -13608552.429 10 0 60007 60300.00000 0 18382351.326 7344553.317 -16067298.059 10 0 60007 61200.00000 0 16262719.422 7339732.096 -18213490.705 10 0 60007 62100.00000 0 13907727.289 7517642.914 -20005456.093 10 0 60007 63000.00000 0 11378780.233 7902522.824 -21408434.172 10 0 60007 63900.00000 0 8742330.741 8507071.440 -22395249.393 10 0 60007 64800.00000 0 6067303.692 9331766.454 -22946831.426 10 0 60007 65700.00000 0 3422431.562 10364708.977 -23052576.964 10 0 60007 66600.00000 0 873610.249 11582005.087 -22710546.473 10 0 60007 67500.00000 0 -1518615.227 12948667.468 -21927492.889 10 0 60007 68400.00000 0 -3701331.619 14419999.267 -20718722.430 10 0 60007 69300.00000 0 -5631211.441 15943402.159 -19107790.759 10 0 60007 70200.00000 0 -7276060.337 17460533.051 -17126040.736 10 0 60007 71100.00000 0 -8615895.188 18909719.253 -14811990.869 10 0 60007 72000.00000 0 -9643509.801 20228531.281 -12210586.298 10 0 60007 72900.00000 0 -10364506.427 21356405.796 -9372326.722 10 0 60007 73800.00000 0 -10796793.496 22237209.102 -6352287.926 10 0 60007 74700.00000 0 -10969572.151 22821633.984 -3209055.712 10 0 60007 75600.00000 0 -10921855.454 23069329.574 -3592.665 10 0 60007 76500.00000 0 -10700583.533 22950675.005 3201940.497 10 0 60007 77400.00000 0 -10358414.782 22448122.400 6345386.238 10 0 60007 78300.00000 0 -9951286.657 21557052.657 9365791.118 10 0 60007 79200.00000 0 -9535849.185 20286107.810 12204583.218 10 0 60007 80100.00000 0 -9166879.515 18656985.472 14806703.463 10 0 60007 81000.00000 0 -8894786.538 16703703.239 17121669.285 10 0 60007 81900.00000 0 -8763310.774 14471362.888 19104550.338 10 0 60007 82800.00000 0 -8807516.505 12014464.931 20716837.793 10 0 60007 83700.00000 0 -9052160.920 9394842.637 21927190.720 10 0 60007 84600.00000 0 -9510509.355 6679300.325 22712045.453 10 0 60007 85500.00000 0 -10183647.104 3937052.985 23056076.242 10 0 60008 0.00000 0 -11060317.627 1237072.727 22952498.328 10 0 60008 900.00000 0 -12117295.627 -1354550.192 22403207.130 10 0 60008 1800.00000 0 -13320279.453 -3777119.393 21418750.600 10 0 60008 2700.00000 0 -14625268.330 -5977618.584 20018134.379 10 0 60008 3600.00000 0 -15980366.792 -7912673.792 18228462.662 10 0 60008 4500.00000 0 -17327942.093 -9550111.723 16084420.825 10 0 60008 5400.00000 0 -18607044.688 -10870049.330 13627608.893 10 0 60008 6300.00000 0 -19755990.431 -11865469.324 10905737.990 10 0 60008 7200.00000 0 -20714995.837 -12542257.832 7971704.833 10 0 60008 8100.00000 0 -21428754.974 -12918703.093 4882562.029 10 0 60008 9000.00000 0 -21848848.645 -13024476.850 1698404.300 10 0 60008 9900.00000 0 -21935883.179 -12899142.199 -1518807.200 10 0 60008 10800.00000 0 -21661267.485 -12590251.862 -4706458.812 10 0 60008 11700.00000 0 -21008552.174 -12151118.440 -7802511.945 10 0 60008 12600.00000 0 -19974273.248 -11638352.249 -10746719.273 10 0 60008 13500.00000 0 -18568263.905 -11109272.212 -13481804.825 10 0 60008 14400.00000 0 -16813420.716 -10619300.617 -15954584.135 10 0 60008 15300.00000 0 -14744933.648 -10219453.005 -18117001.972 10 0 60008 16200.00000 0 -12409012.130 -9954030.126 -19927067.165 10 0 60008 17100.00000 0 -9861160.511 -9858609.981 -21349666.402 10 0 60008 18000.00000 0 -7164075.153 -9958424.916 -22357241.515 10 0 60008 18900.00000 0 -4385250.963 -10267192.129 -22930317.726 10 0 60008 19800.00000 0 -1594397.016 -10786446.593 -23057873.400 10 0 60008 20700.00000 0 1139231.466 -11505404.065 -22737544.960 10 0 60008 21600.00000 0 3749474.415 -12401359.529 -21975663.848 10 0 60008 22500.00000 0 6175772.627 -13440603.924 -20787125.498 10 0 60008 23400.00000 0 8365434.862 -14579820.394 -19195093.434 10 0 60008 24300.00000 0 10275573.530 -15767901.261 -17230544.554 10 0 60008 25200.00000 0 11874630.002 -16948109.462 -14931664.590 10 0 60008 26100.00000 0 13143427.736 -18060493.784 -12343105.450 10 0 60008 27000.00000 0 14075711.000 -19044456.684 -9515118.730 10 0 60008 27900.00000 0 14678148.443 -19841367.081 -6502581.967 10 0 60008 28800.00000 0 14969802.860 -20397108.563 -3363936.339 10 0 60008 29700.00000 0 14981090.834 -20664456.097 -160056.163 10 0 60008 30600.00000 0 14752277.017 -20605181.431 3046928.068 10 0 60008 31500.00000 0 14331567.283 -20191798.644 6194830.462 10 0 60008 32400.00000 0 13772881.553 -19408876.263 9222611.198 10 0 60008 33300.00000 0 13133400.470 -18253860.450 12071555.627 10 0 60008 34200.00000 0 12470989.389 -16737374.068 14686408.363 10 0 60008 35100.00000 0 11841608.174 -14882978.258 17016440.703 10 0 60008 36000.00000 0 11296815.790 -12726405.440 19016431.084 10 0 60008 36900.00000 0 10881474.618 -10314294.579 20647539.928 10 0 60008 37800.00000 0 10631751.031 -7702480.118 21878062.355 10 0 60008 38700.00000 0 10573496.411 -4953904.431 22684044.486 10 0 60008 39600.00000 0 10721076.920 -2136239.233 23049751.555 10 0 60008 40500.00000 0 11076701.720 680686.549 22967978.766 10 0 60008 41400.00000 0 11630278.598 3427546.874 22440198.625 10 0 60008 42300.00000 0 12359803.978 6038157.207 21476541.377 10 0 60008 43200.00000 0 13232272.010 8451982.904 20095608.247 10 0 60008 44100.00000 0 14205065.591 10616413.757 18324120.192 10 0 60008 45000.00000 0 15227771.831 12488710.420 16196408.032 10 0 60008 45900.00000 0 16244346.343 14037541.887 13753752.916 10 0 60008 46800.00000 0 17195535.692 15244050.019 11043589.106 10 0 60008 47700.00000 0 18021456.000 16102396.752 8118584.013 10 0 60008 48600.00000 0 18664218.642 16619771.290 5035613.127 10 0 60008 49500.00000 0 19070491.517 16815857.425 1854649.836 10 0 60008 50400.00000 0 19193886.757 16721783.984 -1362407.747 10 0 60008 51300.00000 0 18997072.796 16378603.481 -4552949.382 10 0 60008 52200.00000 0 18453520.320 15835364.236 -7654880.164 10 0 60008 53100.00000 0 17548807.124 15146858.575 -10607837.803 10 0 60008 54000.00000 0 16281425.689 14371143.551 -13354375.030 10 0 60008 54900.00000 0 14663058.529 13566940.211 -15841083.186 10 0 60008 55800.00000 0 12718309.044 12791022.383 -18019634.471 10 0 60008 56700.00000 0 10483898.728 12095706.152 -19847722.255 10 0 60008 57600.00000 0 8007364.128 11526546.509 -21289881.194 10 0 60008 58500.00000 0 5345307.935 11120338.524 -22318171.514 10 0 60008 59400.00000 0 2561277.178 10903507.129 -22912714.802 10 0 60008 60300.00000 0 -276643.236 10890952.873 -23062071.662 10 0 60008 61200.00000 0 -3098421.672 11085401.576 -22763454.780 10 0 60008 62100.00000 0 -5834748.397 11477284.478 -22022774.078 10 0 60008 63000.00000 0 -8419671.515 12045153.160 -20854513.822 10 0 60008 63900.00000 0 -10793091.637 12756611.095 -19281444.627 10 0 60008 64800.00000 0 -12903012.834 13569722.160 -17334176.293 10 0 60008 65700.00000 0 -14707457.694 14434836.502 -15050560.315 10 0 60008 66600.00000 0 -16175968.225 15296756.831 -12474953.643 10 0 60008 67500.00000 0 -17290631.675 16097153.957 -9657357.852 10 0 60008 68400.00000 0 -18046590.007 16777130.032 -6652450.183 10 0 60008 69300.00000 0 -18452013.200 17279821.728 -3518525.059 10 0 60008 70200.00000 0 -18527538.866 17552933.870 -316366.361 10 0 60008 71100.00000 0 -18305202.827 17551096.928 2891927.860 10 0 60008 72000.00000 0 -17826906.462 17237949.041 6044145.592 10 0 60008 72900.00000 0 -17142485.949 16587854.764 9079162.908 10 0 60008 73800.00000 0 -16307464.959 15587187.814 11938124.734 10 0 60008 74700.00000 0 -15380585.606 14235123.305 14565581.675 10 0 60008 75600.00000 0 -14421221.440 12543905.348 16910561.185 10 0 60008 76500.00000 0 -13486781.184 10538577.663 18927552.687 10 0 60008 77400.00000 0 -12630212.119 8256187.183 20577387.951 10 0 60008 78300.00000 0 -11897707.767 5744492.413 21828000.061 10 0 60008 79200.00000 0 -11326715.987 3060228.754 22655046.613 10 0 60008 80100.00000 0 -10944331.045 267001.461 23042385.232 10 0 60008 81000.00000 0 -10766137.244 -2567107.780 22982392.204 10 0 60008 81900.00000 0 -10795552.970 -5372122.641 22476117.823 10 0 60008 82800.00000 0 -11023703.173 -8078836.315 21533274.948 10 0 60008 83700.00000 0 -11429826.284 -10621448.385 20172060.295 10 0 60008 84600.00000 0 -11982199.217 -12940065.581 18418811.050 10 0 60008 85500.00000 0 -12639542.248 -14982962.825 16307502.514 99